Regional Weather Roundup
Issued by NWS

Home | Current Version | Previous Version | Text Only | Print | Product List | Glossary Off
Versions: 1 2 3 4 5 6 7 8 9 10 11 12 13 14 15 16 17 18 19 20 21 22 23 24 25 26 27 28 29 30 31 32 33 34 35 36 37 38 39 40 41 42 43 44 45 46 47 48 49 50

000
ASUS43 KLOT 271700
RWRIL

ILLINOIS REGIONAL WEATHER ROUNDUP
NATIONAL WEATHER SERVICE CHICAGO/ROMEOVILLE IL
1200 PM CDT WED AUG 27 2014

NOTE: "FAIR" INDICATES FEW OR NO CLOUDS BELOW 12,000 FEET WITH NO
SIGNIFICANT WEATHER AND/OR OBSTRUCTIONS TO VISIBILITY.

* THESE STATIONS ARE NOT UNDER NWS QUALITY CONTROL. THEY ALSO MAY NOT
  REPORT WEATHER SUCH AS PRECIPITATION OR FOG.

ILZ001-002-007-009-015-016-024-271800-
NORTHWEST ILLINOIS

CITY           SKY/WX    TMP DP  RH WIND       PRES   REMARKS
MOLINE         CLOUDY    77  63  61 NE5       30.16R
STERLING*      PTSUNNY   79  64  61 CALM      30.16S HX  81
$$

ILZ003-004-008-010-011-017-018-271800-
NORTH CENTRAL ILLINOIS

CITY           SKY/WX    TMP DP  RH WIND       PRES   REMARKS
ROCKFORD       PTSUNNY   79  60  52 VRB5      30.17S HX  80
$$

ILZ005-006-012>014-019>023-271800-
NORTHEAST ILLINOIS

CITY           SKY/WX    TMP DP  RH WIND       PRES   REMARKS
CHICAGO-OHARE  PTSUNNY   78  57  48 CALM      30.14S
CHICAGO-MIDWAY PTSUNNY   79  62  56 E7        30.14S HX  80
AURORA         MOSUNNY   80  62  54 VRB5      30.15S HX  81
WAUKEGAN       PTSUNNY   72  63  73 N5        30.16S
DUPAGE AIRPORT MOSUNNY   80  61  52 CALM      30.15S HX  81
WHEELING       SUNNY     78  61  55 CALM      30.16S HX  80
NORTHERLY ISL    N/A     73  64  73 NE5         N/A
$$

LMZ740>746-271800-
SOUTHERN LAKE MICHIGAN

STATION/POSITION SKY/WX   TEMP    WIND        PRES    VSBY  WAVE
                          AIR SEA DIR/SP/G                  HT/PER
                          (F)     (DEG/KT/KT) (MB)    (MI)  (FT/S)
SOUTHERN BUOY              68 69   50/  6/  6 1021.5R         0
WAUKEGAN HARBOR            70      60/  7/  7   N/A
HARRISON CRIB              70      60/  3/  4   N/A
BURNHAM HARBOR             73      20/  3/  6   N/A
CALUMET HARBOR             71      80/  5/  6 1019.4F
MICHIGAN CITY              70     360/ 10/ 11   N/A
MICHIGAN CITY 6N           71 74   40/  6/  8   N/A           1/ 2
ST. JOSEPH                 70 74  360/  8/ 12   N/A           1/ 2
$$

ILZ025>027-034>036-040-047-049-050-058-095>099-271800-
WEST-CENTRAL ILLINOIS

CITY           SKY/WX    TMP DP  RH WIND       PRES   REMARKS
QUINCY         CLOUDY    80  72  76 N5        30.14R HX  84
MACOMB*        CLOUDY    78  70  75 CALM      30.17S HX  81
$$

ILZ028>032-037-038-041>044-048-051>054-059>061-271800-
CENTRAL ILLINOIS

CITY           SKY/WX    TMP DP  RH WIND       PRES   REMARKS
DECATUR        CLOUDY    84  74  71 N3        30.12F HX  91
PEORIA         CLOUDY    84  68  58 NE7       30.13S HX  87
SPRINGFIELD    PTSUNNY   85  74  69 NE6       30.12S HX  92
TAYLORVILLE    NOT AVBL
$$

ILZ033-039-045-046-055>057-062-063-271800-
EAST-CENTRAL ILLINOIS

CITY           SKY/WX    TMP DP  RH WIND       PRES   REMARKS
CHAMPAIGN      PTSUNNY   84  75  74 E6        30.12F HX  92
MATTOON        SUNNY     86  73  65 CALM      30.11F HX  93
$$

ILZ079-100>102-271800-
SOUTHWEST ILLINOIS

CITY           SKY/WX    TMP DP  RH WIND       PRES   REMARKS
ALTON          MOSUNNY   86  73  66 VRB5      30.11S HX  93
BELLEVILLE     SUNNY     89  78  69 VRB2      30.09F HX 103
$$

ILZ064>066-069>071-074>076-080>082-084>086-088>090-092>094-271800-
SOUTH-CENTRAL ILLINOIS

CITY           SKY/WX    TMP DP  RH WIND       PRES   REMARKS
CARBONDALE     MOSUNNY   89  72  56 CALM      30.09F HX  96
MARION         MOSUNNY   90  75  62 SW5       30.11F HX 100
MT. VERNON     SUNNY     88  73  62 CALM      30.10F HX  96
$$

ILZ067-068-072-073-078-083-087-091-271800-
SOUTHEAST ILLINOIS

CITY           SKY/WX    TMP DP  RH WIND       PRES   REMARKS
LAWRENCEVILLE  MOSUNNY   87  75  67 W6        30.10F HX  96
HARRISBURG*    SUNNY     89  72  57 CALM      30.11F HX  96
$$

ABBREVIATIONS USED IN REMARKS
   TC - TEMPERATURE IN CELSIUS
  WCI - WIND CHILL INDEX
   HX - HEAT INDEX
  VSB - VISIBILITY
$$



USA.gov is the U.S. government's official web portal to all federal, state and local government web resources and services.